FENGYUN 1C DEB, 38725

Orbit data source: Space-Track

FENGYUN 1C DEB, 38725 is space debris in SSO originally from a launch on Mon, 10 May 1999 UTC launched from the Taiyaun Space Center, China (TSC). Fengyun 1C debris stems from the Chinese weather satellite Fengyun-1C, which was intentionally destroyed by a Chinese anti-satellite missile in 2007. This event dramatically increased the amount of space debris, with thousands of trackable fragments posing hazards to satellites and human spaceflight. The Fengyun 1C debris cloud has become a focal point in discussions about space sustainability and the need for international regulations to prevent the creation of new debris.

Loading next visibility...
Identifier
38725, 1999-025ETS
Orbit
SSO
Country
Flag of CNCN / PRC
Related business
Manufacturer
Unknown
Mission
Spacecraft
Bus & Motor
Unknown
Mass
Unknown
Launch date (UTC)
1999-05-10 (27 years ago)
Launch vehicle
Unknown
Launch site
Taiyaun Space Center, China (TSC)
Object type
Payload
Rocket body
Debris
Shape & HBR
Unknown shape, 0.1 m
Radar Cross Section
Small (<0.1 m²)

Expand to show TLE details & history
Last TLE update: 2 days ago

TLE from 2 days ago
0 FENGYUN 1C DEB
1 38725U 99025ETS 26176.84110718  .00007446  00000-0  20890-2 0  9994
2 38725  98.8836 315.6411 0032145  38.8583 321.4910 14.45989181761699
Epoch: 2026-06-25T20:11Z
TLE epoch observation values (Epoch: 2026-06-25T20:11:11.660Z)
Latitude
0.00001°
Longitude
98.86433°
Altitude
723.846 km
Speed
7.503 km/s
True Right ascension
21h 02m 33s
True Declination
0° 00' 00"
Sunlit
Object was in full shadow at epoch
Visualization orbit readout
Latitude
Unknown
Longitude
Unknown
Altitude
Unknown
Speed
Unknown
Apparent Right ascension
Unknown
Apparent Declination
Unknown
Sunlit
N/A
Visualization observer readout
Local Sidereal Time
00:08:26
Azimuth
Unknown
Elevation
Unknown
Doppler factor
Unknown
Orbital elements
Apogee altitude
758.779 km
Perigee altitude
713.043 km
Semi-major axis
7,114.048 km
Eccentricity
0.00321
Inclination
98.8836°
RAAN
315.6411°
Arg. of periapsis
38.8583°
True anomaly
321.26093°
Mean anomaly
321.491°
Eccentric anomaly
321.37604°
Mean motion
3.61716 °/min
Orbital period
99.53 mins
BSTAR
0.002089
Loading maneuver chart data...
Computing Atmospheric mass density...

Documentation

Showing up to 5 results
|